Year,Month,Day,Hour,Minute,Value (Times are PST for temperature in C)
2006,09,25,00,00,11.40
2006,09,25,00,01,11.40
2006,09,25,00,02,11.40
2006,09,25,00,03,11.40
2006,09,25,00,04,11.40
2006,09,25,00,05,11.40
2006,09,25,00,06,11.40
2006,09,25,00,07,11.40
2006,09,25,00,08,11.40
2006,09,25,00,09,11.40
2006,09,25,00,10,11.40
2006,09,25,00,11,11.40
2006,09,25,00,12,11.40
2006,09,25,00,13,11.40
2006,09,25,00,14,11.40
2006,09,25,00,15,11.40
2006,09,25,00,16,11.40
2006,09,25,00,17,11.40
2006,09,25,00,18,11.30
2006,09,25,00,19,11.30
2006,09,25,00,20,11.30
2006,09,25,00,21,11.30
2006,09,25,00,22,11.30
2006,09,25,00,23,11.30
2006,09,25,00,24,11.30
2006,09,25,00,25,11.30
2006,09,25,00,26,11.30
2006,09,25,00,27,11.30
2006,09,25,00,28,11.30
2006,09,25,00,29,11.30
2006,09,25,00,30,11.30
2006,09,25,00,31,11.30
2006,09,25,00,32,11.30
2006,09,25,00,33,11.30
2006,09,25,00,34,11.30
2006,09,25,00,35,11.30
2006,09,25,00,36,11.30
2006,09,25,00,37,11.20
2006,09,25,00,38,11.20
2006,09,25,00,39,11.20
2006,09,25,00,40,11.20
2006,09,25,00,41,11.20
2006,09,25,00,42,11.20
2006,09,25,00,43,11.30
2006,09,25,00,44,11.30
2006,09,25,00,45,11.30
2006,09,25,00,46,11.20
2006,09,25,00,47,11.20
2006,09,25,00,48,11.20
2006,09,25,00,49,11.20
2006,09,25,00,50,11.20
2006,09,25,00,51,11.20
2006,09,25,00,52,11.10
2006,09,25,00,53,11.10
2006,09,25,00,54,11.10
2006,09,25,00,55,11.10
2006,09,25,00,56,11.10
2006,09,25,00,57,11.10
2006,09,25,00,58,11.10
2006,09,25,00,59,11.10
2006,09,25,01,00,11.10
2006,09,25,01,01,11.10
2006,09,25,01,02,11.10
2006,09,25,01,03,11.10
2006,09,25,01,04,11.10
2006,09,25,01,05,11.10
2006,09,25,01,06,11.10
2006,09,25,01,07,11.10
2006,09,25,01,08,11.10
2006,09,25,01,09,11.10
2006,09,25,01,10,11.10
2006,09,25,01,11,11.10
2006,09,25,01,12,11.10
2006,09,25,01,13,11.10
2006,09,25,01,14,11.10
2006,09,25,01,15,11.10
2006,09,25,01,16,11.10
2006,09,25,01,17,11.10
2006,09,25,01,18,11.00
2006,09,25,01,19,10.90
2006,09,25,01,20,10.90
2006,09,25,01,21,10.90
2006,09,25,01,22,10.90
2006,09,25,01,23,10.90
2006,09,25,01,24,10.90
2006,09,25,01,25,10.90
2006,09,25,01,26,10.90
2006,09,25,01,27,10.90
2006,09,25,01,28,10.90
2006,09,25,01,29,10.90
2006,09,25,01,30,10.90
2006,09,25,01,31,10.90
2006,09,25,01,32,10.90
2006,09,25,01,33,10.90
2006,09,25,01,34,10.90
2006,09,25,01,35,10.90
2006,09,25,01,36,10.90
2006,09,25,01,37,10.90
2006,09,25,01,38,10.90
2006,09,25,01,39,10.90
2006,09,25,01,40,10.90
2006,09,25,01,41,10.90
2006,09,25,01,42,10.90
2006,09,25,01,43,10.90
2006,09,25,01,44,10.90
2006,09,25,01,45,10.90
2006,09,25,01,46,10.90
2006,09,25,01,47,10.90
2006,09,25,01,48,10.90
2006,09,25,01,49,10.90
2006,09,25,01,50,10.90
2006,09,25,01,51,10.90
2006,09,25,01,52,11.00
2006,09,25,01,53,11.10
2006,09,25,01,54,11.10
2006,09,25,01,55,11.00
2006,09,25,01,56,10.90
2006,09,25,01,57,10.90
2006,09,25,01,58,10.90
2006,09,25,01,59,10.90
2006,09,25,02,00,10.90
2006,09,25,02,01,10.90
2006,09,25,02,02,10.90
2006,09,25,02,03,10.80
2006,09,25,02,04,10.90
2006,09,25,02,05,10.90
2006,09,25,02,06,10.90
2006,09,25,02,07,10.90
2006,09,25,02,08,10.90
2006,09,25,02,09,10.90
2006,09,25,02,10,11.00
2006,09,25,02,11,11.10
2006,09,25,02,12,11.10
2006,09,25,02,13,11.10
2006,09,25,02,14,11.20
2006,09,25,02,15,11.20
2006,09,25,02,16,11.20
2006,09,25,02,17,11.30
2006,09,25,02,18,11.30
2006,09,25,02,19,11.20
2006,09,25,02,20,11.20
2006,09,25,02,21,11.20
2006,09,25,02,22,11.20
2006,09,25,02,23,11.20
2006,09,25,02,24,11.20
2006,09,25,02,25,11.20
2006,09,25,02,26,11.20
2006,09,25,02,27,11.20
2006,09,25,02,28,11.10
2006,09,25,02,29,11.10
2006,09,25,02,30,11.10
2006,09,25,02,31,11.10
2006,09,25,02,32,11.20
2006,09,25,02,33,11.20
2006,09,25,02,34,11.20
2006,09,25,02,35,11.20
2006,09,25,02,36,11.10
2006,09,25,02,37,11.10
2006,09,25,02,38,11.10
2006,09,25,02,39,11.10
2006,09,25,02,40,11.10
2006,09,25,02,41,11.10
2006,09,25,02,42,11.10
2006,09,25,02,43,11.10
2006,09,25,02,44,11.10
2006,09,25,02,45,11.10
2006,09,25,02,46,11.10
2006,09,25,02,47,11.10
2006,09,25,02,48,11.10
2006,09,25,02,49,11.10
2006,09,25,02,50,11.10
2006,09,25,02,51,11.20
2006,09,25,02,52,11.20
2006,09,25,02,53,11.20
2006,09,25,02,54,11.20
2006,09,25,02,55,11.30
2006,09,25,02,56,11.30
2006,09,25,02,57,11.30
2006,09,25,02,58,11.30
2006,09,25,02,59,11.20
2006,09,25,03,00,11.20
2006,09,25,03,01,11.20
2006,09,25,03,02,11.20
2006,09,25,03,03,11.20
2006,09,25,03,04,11.20
2006,09,25,03,05,11.20
2006,09,25,03,06,11.20
2006,09,25,03,07,11.30
2006,09,25,03,08,11.30
2006,09,25,03,09,11.40
2006,09,25,03,10,11.60
2006,09,25,03,11,11.70
2006,09,25,03,12,11.80
2006,09,25,03,13,11.80
2006,09,25,03,14,11.80
2006,09,25,03,15,11.80
2006,09,25,03,16,11.80
2006,09,25,03,17,11.80
2006,09,25,03,18,11.80
2006,09,25,03,19,11.80
2006,09,25,03,20,11.80
2006,09,25,03,21,11.80
2006,09,25,03,22,11.70
2006,09,25,03,23,11.70
2006,09,25,03,24,11.60
2006,09,25,03,25,11.60
2006,09,25,03,26,11.60
2006,09,25,03,27,11.60
2006,09,25,03,28,11.60
2006,09,25,03,29,11.60
2006,09,25,03,30,11.70
2006,09,25,03,31,11.70
2006,09,25,03,32,11.80
2006,09,25,03,33,11.80
2006,09,25,03,34,11.80
2006,09,25,03,35,11.80
2006,09,25,03,36,11.80
2006,09,25,03,37,11.80
2006,09,25,03,38,11.80
2006,09,25,03,39,11.80
2006,09,25,03,40,11.80
2006,09,25,03,41,11.80
2006,09,25,03,42,11.80
2006,09,25,03,43,11.80
2006,09,25,03,44,11.70
2006,09,25,03,45,11.60
2006,09,25,03,46,11.60
2006,09,25,03,47,11.60
2006,09,25,03,48,11.60
2006,09,25,03,49,11.60
2006,09,25,03,50,11.70
2006,09,25,03,51,11.70
2006,09,25,03,52,11.70
2006,09,25,03,53,11.80
2006,09,25,03,54,11.70
2006,09,25,03,55,11.70
2006,09,25,03,56,11.70
2006,09,25,03,57,11.80
2006,09,25,03,58,11.80
2006,09,25,03,59,11.80
2006,09,25,04,00,11.80
2006,09,25,04,01,11.80
2006,09,25,04,02,11.80
2006,09,25,04,03,11.80
2006,09,25,04,04,11.80
2006,09,25,04,05,11.80
2006,09,25,04,06,11.80
2006,09,25,04,07,11.80
2006,09,25,04,08,11.80
2006,09,25,04,09,11.70
2006,09,25,04,10,11.70
2006,09,25,04,11,11.70
2006,09,25,04,12,11.70
2006,09,25,04,13,11.60
2006,09,25,04,14,11.70
2006,09,25,04,15,11.70
2006,09,25,04,16,11.70
2006,09,25,04,17,11.70
2006,09,25,04,18,11.80
2006,09,25,04,19,11.80
2006,09,25,04,20,11.80
2006,09,25,04,21,11.80
2006,09,25,04,22,11.80
2006,09,25,04,23,11.80
2006,09,25,04,24,11.80
2006,09,25,04,25,11.80
2006,09,25,04,26,11.80
2006,09,25,04,27,11.80
2006,09,25,04,28,11.60
2006,09,25,04,29,11.50
2006,09,25,04,30,11.40
2006,09,25,04,31,11.40
2006,09,25,04,32,11.40
2006,09,25,04,33,11.40
2006,09,25,04,34,11.40
2006,09,25,04,35,11.40
2006,09,25,04,36,11.40
2006,09,25,04,37,11.40
2006,09,25,04,38,11.40
2006,09,25,04,39,11.40
2006,09,25,04,40,11.50
2006,09,25,04,41,11.50
2006,09,25,04,42,11.40
2006,09,25,04,43,11.40
2006,09,25,04,44,11.40
2006,09,25,04,45,11.40
2006,09,25,04,46,11.30
2006,09,25,04,47,11.20
2006,09,25,04,48,11.10
2006,09,25,04,49,11.10
2006,09,25,04,50,11.10
2006,09,25,04,51,11.10
2006,09,25,04,52,11.20
2006,09,25,04,53,11.20
2006,09,25,04,54,11.20
2006,09,25,04,55,11.20
2006,09,25,04,56,11.20
2006,09,25,04,57,11.20
2006,09,25,04,58,11.20
2006,09,25,04,59,11.20
2006,09,25,05,00,11.10
2006,09,25,05,01,11.10
2006,09,25,05,02,11.10
2006,09,25,05,03,11.20
2006,09,25,05,04,11.30
2006,09,25,05,05,11.30
2006,09,25,05,06,11.30
2006,09,25,05,07,11.30
2006,09,25,05,08,11.30
2006,09,25,05,09,11.30
2006,09,25,05,10,11.30
2006,09,25,05,11,11.20
2006,09,25,05,12,11.20
2006,09,25,05,13,11.20
2006,09,25,05,14,11.10
2006,09,25,05,15,11.10
2006,09,25,05,16,11.10
2006,09,25,05,17,11.10
2006,09,25,05,18,11.10
2006,09,25,05,19,11.10
2006,09,25,05,20,11.10
2006,09,25,05,21,11.10
2006,09,25,05,22,11.10
2006,09,25,05,23,11.00
2006,09,25,05,24,10.90
2006,09,25,05,25,10.90
2006,09,25,05,26,10.90
2006,09,25,05,27,10.90
2006,09,25,05,28,10.90
2006,09,25,05,29,10.90
2006,09,25,05,30,10.90
2006,09,25,05,31,10.80
2006,09,25,05,32,10.80
2006,09,25,05,33,10.80
2006,09,25,05,34,10.80
2006,09,25,05,35,10.80
2006,09,25,05,36,10.80
2006,09,25,05,37,10.80
2006,09,25,05,38,10.90
2006,09,25,05,39,10.90
2006,09,25,05,40,10.90
2006,09,25,05,41,10.90
2006,09,25,05,42,10.90
2006,09,25,05,43,10.90
2006,09,25,05,44,10.80
2006,09,25,05,45,10.80
2006,09,25,05,46,10.80
2006,09,25,05,47,10.70
2006,09,25,05,48,10.70
2006,09,25,05,49,10.70
2006,09,25,05,50,10.60
2006,09,25,05,51,10.60
2006,09,25,05,52,10.60
2006,09,25,05,53,10.60
2006,09,25,05,54,10.60
2006,09,25,05,55,10.60
2006,09,25,05,56,10.60
2006,09,25,05,57,10.60
2006,09,25,05,58,10.50
2006,09,25,05,59,10.40
2006,09,25,06,00,10.40
2006,09,25,06,01,10.40
2006,09,25,06,02,10.40
2006,09,25,06,03,10.60
2006,09,25,06,04,10.60
2006,09,25,06,05,10.60
2006,09,25,06,06,10.60
2006,09,25,06,07,10.60
2006,09,25,06,08,10.50
2006,09,25,06,09,10.40
2006,09,25,06,10,10.40
2006,09,25,06,11,10.40
2006,09,25,06,12,10.40
2006,09,25,06,13,10.40
2006,09,25,06,14,10.40
2006,09,25,06,15,10.40
2006,09,25,06,16,10.40
2006,09,25,06,17,10.40
2006,09,25,06,18,10.40
2006,09,25,06,19,10.40
2006,09,25,06,20,10.30
2006,09,25,06,21,10.30
2006,09,25,06,22,10.30
2006,09,25,06,23,10.20
2006,09,25,06,24,10.20
2006,09,25,06,25,10.20
2006,09,25,06,26,10.10
2006,09,25,06,27,10.10
2006,09,25,06,28,10.10
2006,09,25,06,29,10.10
2006,09,25,06,30,10.10
2006,09,25,06,31,10.00
2006,09,25,06,32,9.90
2006,09,25,06,33,9.90
2006,09,25,06,34,9.90
2006,09,25,06,35,9.90
2006,09,25,06,36,9.90
2006,09,25,06,37,9.90
2006,09,25,06,38,9.90
2006,09,25,06,39,9.90
2006,09,25,06,40,9.90
2006,09,25,06,41,9.90
2006,09,25,06,42,9.90
2006,09,25,06,43,9.90
2006,09,25,06,44,9.90
2006,09,25,06,45,9.90
2006,09,25,06,46,9.90
2006,09,25,06,47,9.90
2006,09,25,06,48,9.90
2006,09,25,06,49,9.80
2006,09,25,06,50,9.80
2006,09,25,06,51,9.80
2006,09,25,06,52,9.80
2006,09,25,06,53,9.70
2006,09,25,06,54,9.70
2006,09,25,06,55,9.70
2006,09,25,06,56,9.70
2006,09,25,06,57,9.70
2006,09,25,06,58,9.70
2006,09,25,06,59,9.70
2006,09,25,07,00,9.70
2006,09,25,07,01,9.80
2006,09,25,07,02,9.80
2006,09,25,07,03,9.80
2006,09,25,07,04,9.70
2006,09,25,07,05,9.70
2006,09,25,07,06,9.70
2006,09,25,07,07,9.70
2006,09,25,07,08,9.70
2006,09,25,07,09,9.70
2006,09,25,07,10,9.70
2006,09,25,07,11,9.70
2006,09,25,07,12,9.70
2006,09,25,07,13,9.70
2006,09,25,07,14,9.70
2006,09,25,07,15,9.70
2006,09,25,07,16,9.70
2006,09,25,07,17,9.70
2006,09,25,07,18,9.70
2006,09,25,07,19,9.70
2006,09,25,07,20,9.70
2006,09,25,07,21,9.70
2006,09,25,07,22,9.70
2006,09,25,07,23,9.70
2006,09,25,07,24,9.70
2006,09,25,07,25,9.70
2006,09,25,07,26,9.70
2006,09,25,07,27,9.70
2006,09,25,07,28,9.70
2006,09,25,07,29,9.70
2006,09,25,07,30,9.70
2006,09,25,07,31,9.70
2006,09,25,07,32,9.60
2006,09,25,07,33,9.60
2006,09,25,07,34,9.60
2006,09,25,07,35,9.60
2006,09,25,07,36,9.60
2006,09,25,07,37,9.60
2006,09,25,07,38,9.60
2006,09,25,07,39,9.60
2006,09,25,07,40,9.60
2006,09,25,07,41,9.60
2006,09,25,07,42,9.60
2006,09,25,07,43,9.60
2006,09,25,07,44,9.60
2006,09,25,07,45,9.60
2006,09,25,07,46,9.60
2006,09,25,07,47,9.60
2006,09,25,07,48,9.60
2006,09,25,07,49,9.60
2006,09,25,07,50,9.60
2006,09,25,07,51,9.60
2006,09,25,07,52,9.60
2006,09,25,07,53,9.60
2006,09,25,07,54,9.60
2006,09,25,07,55,9.70
2006,09,25,07,56,9.70
2006,09,25,07,57,9.70
2006,09,25,07,58,9.70
2006,09,25,07,59,9.70
2006,09,25,08,00,9.70
2006,09,25,08,01,9.70
2006,09,25,08,02,9.70
2006,09,25,08,03,9.70
2006,09,25,08,04,9.70
2006,09,25,08,05,9.80
2006,09,25,08,06,9.80
2006,09,25,08,07,9.80
2006,09,25,08,08,9.90
2006,09,25,08,09,9.90
2006,09,25,08,10,9.90
2006,09,25,08,11,10.00
2006,09,25,08,12,10.10
2006,09,25,08,13,10.10
2006,09,25,08,14,10.20
2006,09,25,08,15,10.20
2006,09,25,08,16,10.30
2006,09,25,08,17,10.30
2006,09,25,08,18,10.40
2006,09,25,08,19,10.40
2006,09,25,08,20,10.40
2006,09,25,08,21,10.60
2006,09,25,08,22,10.60
2006,09,25,08,23,10.60
2006,09,25,08,24,10.60
2006,09,25,08,25,10.60
2006,09,25,08,26,10.70
2006,09,25,08,27,10.70
2006,09,25,08,28,10.80
2006,09,25,08,29,10.80
2006,09,25,08,30,10.80
2006,09,25,08,31,10.90
2006,09,25,08,32,10.90
2006,09,25,08,33,10.90
2006,09,25,08,34,11.10
2006,09,25,08,35,11.20
2006,09,25,08,36,11.30
2006,09,25,08,37,11.40
2006,09,25,08,38,11.50
2006,09,25,08,39,11.60
2006,09,25,08,40,11.60
2006,09,25,08,41,11.70
2006,09,25,08,42,11.80
2006,09,25,08,43,11.80
2006,09,25,08,44,11.80
2006,09,25,08,45,11.80
2006,09,25,08,46,11.90
2006,09,25,08,47,11.90
2006,09,25,08,48,12.00
2006,09,25,08,49,12.00
2006,09,25,08,50,12.10
2006,09,25,08,51,12.20
2006,09,25,08,52,12.30
2006,09,25,08,53,12.40
2006,09,25,08,54,12.50
2006,09,25,08,55,12.60
2006,09,25,08,56,12.70
2006,09,25,08,57,12.80
2006,09,25,08,58,12.90
2006,09,25,08,59,13.00
2006,09,25,09,00,13.10
2006,09,25,09,01,13.20
2006,09,25,09,02,13.20
2006,09,25,09,03,13.30
2006,09,25,09,04,13.30
2006,09,25,09,05,13.40
2006,09,25,09,06,13.50
2006,09,25,09,07,13.60
2006,09,25,09,08,13.70
2006,09,25,09,09,13.80
2006,09,25,09,10,13.80
2006,09,25,09,11,13.90
2006,09,25,09,12,14.00
2006,09,25,09,13,14.10
2006,09,25,09,14,14.20
2006,09,25,09,15,14.20
2006,09,25,09,16,14.30
2006,09,25,09,17,14.40
2006,09,25,09,18,14.50
2006,09,25,09,19,14.60
2006,09,25,09,20,14.60
2006,09,25,09,21,14.70
2006,09,25,09,22,14.80
2006,09,25,09,23,14.80
2006,09,25,09,24,14.90
2006,09,25,09,25,15.00
2006,09,25,09,26,15.00
2006,09,25,09,27,15.10
2006,09,25,09,28,15.20
2006,09,25,09,29,15.30
2006,09,25,09,30,15.30
2006,09,25,09,31,15.30
2006,09,25,09,32,15.30
2006,09,25,09,33,15.50
2006,09,25,09,34,15.50
2006,09,25,09,35,15.50
2006,09,25,09,36,15.60
2006,09,25,09,37,15.60
2006,09,25,09,38,15.70
2006,09,25,09,39,15.80
2006,09,25,09,40,15.80
2006,09,25,09,41,15.80
2006,09,25,09,42,15.80
2006,09,25,09,43,15.80
2006,09,25,09,44,15.90
2006,09,25,09,45,15.90
2006,09,25,09,46,15.90
2006,09,25,09,47,15.90
2006,09,25,09,48,16.00
2006,09,25,09,49,16.10
2006,09,25,09,50,16.10
2006,09,25,09,51,16.10
2006,09,25,09,52,16.20
2006,09,25,09,53,16.20
2006,09,25,09,54,16.20
2006,09,25,09,55,16.30
2006,09,25,09,56,16.30
2006,09,25,09,57,16.30
2006,09,25,09,58,16.30
2006,09,25,09,59,16.40
2006,09,25,10,00,16.40
2006,09,25,10,01,16.40
2006,09,25,10,02,16.40
2006,09,25,10,03,16.40
2006,09,25,10,04,16.40
2006,09,25,10,05,16.40
2006,09,25,10,06,16.40
2006,09,25,10,07,16.40
2006,09,25,10,08,16.50
2006,09,25,10,09,16.60
2006,09,25,10,10,16.60
2006,09,25,10,11,16.60
2006,09,25,10,12,16.60
2006,09,25,10,13,16.70
2006,09,25,10,14,16.70
2006,09,25,10,15,16.70
2006,09,25,10,16,16.70
2006,09,25,10,17,16.70
2006,09,25,10,18,16.70
2006,09,25,10,19,16.70
2006,09,25,10,20,16.70
2006,09,25,10,21,16.70
2006,09,25,10,22,16.70
2006,09,25,10,23,16.70
2006,09,25,10,24,16.70
2006,09,25,10,25,16.70
2006,09,25,10,26,16.70
2006,09,25,10,27,16.70
2006,09,25,10,28,16.80
2006,09,25,10,29,16.80
2006,09,25,10,30,16.90
2006,09,25,10,31,16.90
2006,09,25,10,32,16.90
2006,09,25,10,33,17.00
2006,09,25,10,34,17.00
2006,09,25,10,35,17.00
2006,09,25,10,36,17.00
2006,09,25,10,37,17.00
2006,09,25,10,38,17.10
2006,09,25,10,39,17.20
2006,09,25,10,40,17.20
2006,09,25,10,41,17.30
2006,09,25,10,42,17.30
2006,09,25,10,43,17.30
2006,09,25,10,44,17.30
2006,09,25,10,45,17.30
2006,09,25,10,46,17.30
2006,09,25,10,47,17.30
2006,09,25,10,48,17.40
2006,09,25,10,49,17.40
2006,09,25,10,50,17.40
2006,09,25,10,51,17.50
2006,09,25,10,52,17.50
2006,09,25,10,53,17.60
2006,09,25,10,54,17.60
2006,09,25,10,55,17.70
2006,09,25,10,56,17.70
2006,09,25,10,57,17.70
2006,09,25,10,58,17.70
2006,09,25,10,59,17.70
2006,09,25,11,00,17.60
2006,09,25,11,01,17.50
2006,09,25,11,02,17.50
2006,09,25,11,03,17.50
2006,09,25,11,04,17.50
2006,09,25,11,05,17.50
2006,09,25,11,06,17.40
2006,09,25,11,07,17.40
2006,09,25,11,08,17.50
2006,09,25,11,09,17.50
2006,09,25,11,10,17.60
2006,09,25,11,11,17.70
2006,09,25,11,12,17.70
2006,09,25,11,13,17.70
2006,09,25,11,14,17.70
2006,09,25,11,15,17.80
2006,09,25,11,16,17.80
2006,09,25,11,17,17.80
2006,09,25,11,18,17.90
2006,09,25,11,19,17.90
2006,09,25,11,20,18.00
2006,09,25,11,21,18.20
2006,09,25,11,22,18.30
2006,09,25,11,23,18.40
2006,09,25,11,24,18.50
2006,09,25,11,25,18.60
2006,09,25,11,26,18.70
2006,09,25,11,27,18.70
2006,09,25,11,28,18.80
2006,09,25,11,29,18.90
2006,09,25,11,30,19.00
2006,09,25,11,31,19.10
2006,09,25,11,32,19.10
2006,09,25,11,33,19.10
2006,09,25,11,34,19.00
2006,09,25,11,35,18.90
2006,09,25,11,36,18.80
2006,09,25,11,37,18.80
2006,09,25,11,38,18.70
2006,09,25,11,39,18.70
2006,09,25,11,40,18.70
2006,09,25,11,41,18.70
2006,09,25,11,42,18.70
2006,09,25,11,43,18.70
2006,09,25,11,44,18.70
2006,09,25,11,45,18.70
2006,09,25,11,46,18.70
2006,09,25,11,47,18.70
2006,09,25,11,48,18.70
2006,09,25,11,49,18.80
2006,09,25,11,50,18.80
2006,09,25,11,51,18.90
2006,09,25,11,52,18.90
2006,09,25,11,53,18.90
2006,09,25,11,54,18.90
2006,09,25,11,55,18.80
2006,09,25,11,56,18.80
2006,09,25,11,57,18.80
2006,09,25,11,58,18.80
2006,09,25,11,59,18.80
2006,09,25,12,00,18.70
2006,09,25,12,01,18.70
2006,09,25,12,02,18.70
2006,09,25,12,03,18.70
2006,09,25,12,04,18.70
2006,09,25,12,05,18.60
2006,09,25,12,06,18.60
2006,09,25,12,07,18.60
2006,09,25,12,08,18.60
2006,09,25,12,09,18.60
2006,09,25,12,10,18.50
2006,09,25,12,11,18.50
2006,09,25,12,12,18.50
2006,09,25,12,13,18.50
2006,09,25,12,14,18.40
2006,09,25,12,15,18.40
2006,09,25,12,16,18.50
2006,09,25,12,17,18.50
2006,09,25,12,18,18.50
2006,09,25,12,19,18.60
2006,09,25,12,20,18.70
2006,09,25,12,21,18.80
2006,09,25,12,22,18.80
2006,09,25,12,23,18.90
2006,09,25,12,24,18.90
2006,09,25,12,25,19.10
2006,09,25,12,26,19.10
2006,09,25,12,27,19.30
2006,09,25,12,28,19.30
2006,09,25,12,29,19.40
2006,09,25,12,30,19.40
2006,09,25,12,31,19.40
2006,09,25,12,32,19.50
2006,09,25,12,33,19.40
2006,09,25,12,34,19.40
2006,09,25,12,35,19.40
2006,09,25,12,36,19.40
2006,09,25,12,37,19.50
2006,09,25,12,38,19.50
2006,09,25,12,39,19.50
2006,09,25,12,40,19.60
2006,09,25,12,41,19.70
2006,09,25,12,42,19.70
2006,09,25,12,43,19.50
2006,09,25,12,44,19.40
2006,09,25,12,45,19.30
2006,09,25,12,46,19.30
2006,09,25,12,47,19.30
2006,09,25,12,48,19.20
2006,09,25,12,49,19.20
2006,09,25,12,50,19.20
2006,09,25,12,51,19.20
2006,09,25,12,52,19.10
2006,09,25,12,53,19.10
2006,09,25,12,54,19.10
2006,09,25,12,55,19.10
2006,09,25,12,56,19.10
2006,09,25,12,57,19.10
2006,09,25,12,58,19.10
2006,09,25,12,59,19.10
2006,09,25,13,00,19.10
2006,09,25,13,01,19.20
2006,09,25,13,02,19.20
2006,09,25,13,03,19.30
2006,09,25,13,04,19.40
2006,09,25,13,05,19.40
2006,09,25,13,06,19.40
2006,09,25,13,07,19.40
2006,09,25,13,08,19.50
2006,09,25,13,09,19.50
2006,09,25,13,10,19.50
2006,09,25,13,11,19.50
2006,09,25,13,12,19.50
2006,09,25,13,13,19.60
2006,09,25,13,14,19.70
2006,09,25,13,15,19.70
2006,09,25,13,16,19.70
2006,09,25,13,17,19.60
2006,09,25,13,18,19.60
2006,09,25,13,19,19.60
2006,09,25,13,20,19.70
2006,09,25,13,21,19.70
2006,09,25,13,22,19.80
2006,09,25,13,23,19.80
2006,09,25,13,24,19.80
2006,09,25,13,25,19.80
2006,09,25,13,26,19.70
2006,09,25,13,27,19.70
2006,09,25,13,28,19.70
2006,09,25,13,29,19.70
2006,09,25,13,30,19.70
2006,09,25,13,31,19.70
2006,09,25,13,32,19.70
2006,09,25,13,33,19.70
2006,09,25,13,34,19.70
2006,09,25,13,35,19.80
2006,09,25,13,36,19.80
2006,09,25,13,37,19.80
2006,09,25,13,38,19.80
2006,09,25,13,39,19.80
2006,09,25,13,40,19.90
2006,09,25,13,41,19.90
2006,09,25,13,42,19.90
2006,09,25,13,43,19.90
2006,09,25,13,44,19.90
2006,09,25,13,45,19.90
2006,09,25,13,46,19.90
2006,09,25,13,47,19.90
2006,09,25,13,48,19.90
2006,09,25,13,49,19.90
2006,09,25,13,50,19.90
2006,09,25,13,51,19.90
2006,09,25,13,52,19.90
2006,09,25,13,53,19.90
2006,09,25,13,54,19.90
2006,09,25,13,55,20.10
2006,09,25,13,56,20.20
2006,09,25,13,57,20.20
2006,09,25,13,58,20.10
2006,09,25,13,59,20.10
2006,09,25,14,00,20.00
2006,09,25,14,01,20.10
2006,09,25,14,02,20.10
2006,09,25,14,03,20.10
2006,09,25,14,04,20.10
2006,09,25,14,05,20.10
2006,09,25,14,06,20.10
2006,09,25,14,07,20.10
2006,09,25,14,08,20.10
2006,09,25,14,09,20.10
2006,09,25,14,10,19.90
2006,09,25,14,11,19.90
2006,09,25,14,12,19.90
2006,09,25,14,13,19.90
2006,09,25,14,14,20.10
2006,09,25,14,15,20.10
2006,09,25,14,16,20.20
2006,09,25,14,17,20.20
2006,09,25,14,18,20.20
2006,09,25,14,19,20.20
2006,09,25,14,20,20.30
2006,09,25,14,21,20.40
2006,09,25,14,22,20.50
2006,09,25,14,23,20.60
2006,09,25,14,24,20.60
2006,09,25,14,25,20.60
2006,09,25,14,26,20.70
2006,09,25,14,27,20.70
2006,09,25,14,28,20.70
2006,09,25,14,29,20.70
2006,09,25,14,30,20.70
2006,09,25,14,31,20.60
2006,09,25,14,32,20.60
2006,09,25,14,33,20.60
2006,09,25,14,34,20.60
2006,09,25,14,35,20.70
2006,09,25,14,36,20.70
2006,09,25,14,37,20.70
2006,09,25,14,38,20.80
2006,09,25,14,39,20.80
2006,09,25,14,40,20.80
2006,09,25,14,41,20.70
2006,09,25,14,42,20.70
2006,09,25,14,43,20.70
2006,09,25,14,44,20.70
2006,09,25,14,45,20.80
2006,09,25,14,46,20.80
2006,09,25,14,47,20.90
2006,09,25,14,48,20.90
2006,09,25,14,49,20.90
2006,09,25,14,50,20.80
2006,09,25,14,51,20.80
2006,09,25,14,52,20.80
2006,09,25,14,53,20.80
2006,09,25,14,54,20.80
2006,09,25,14,55,20.80
2006,09,25,14,56,20.80
2006,09,25,14,57,20.80
2006,09,25,14,58,20.80
2006,09,25,14,59,20.70
2006,09,25,15,00,20.80
2006,09,25,15,01,20.80
2006,09,25,15,02,20.80
2006,09,25,15,03,20.80
2006,09,25,15,04,20.70
2006,09,25,15,05,20.70
2006,09,25,15,06,20.60
2006,09,25,15,07,20.60
2006,09,25,15,08,20.60
2006,09,25,15,09,20.60
2006,09,25,15,10,20.60
2006,09,25,15,11,20.60
2006,09,25,15,12,20.70
2006,09,25,15,13,20.80
2006,09,25,15,14,20.90
2006,09,25,15,15,20.90
2006,09,25,15,16,20.90
2006,09,25,15,17,20.90
2006,09,25,15,18,20.90
2006,09,25,15,19,20.90
2006,09,25,15,20,20.90
2006,09,25,15,21,20.90
2006,09,25,15,22,20.80
2006,09,25,15,23,20.80
2006,09,25,15,24,20.70
2006,09,25,15,25,20.70
2006,09,25,15,26,20.60
2006,09,25,15,27,20.60
2006,09,25,15,28,20.60
2006,09,25,15,29,20.60
2006,09,25,15,30,20.60
2006,09,25,15,31,20.70
2006,09,25,15,32,20.70
2006,09,25,15,33,20.70
2006,09,25,15,34,20.70
2006,09,25,15,35,20.70
2006,09,25,15,36,20.80
2006,09,25,15,37,20.80
2006,09,25,15,38,20.90
2006,09,25,15,39,21.00
2006,09,25,15,40,21.10
2006,09,25,15,41,21.20
2006,09,25,15,42,21.30
2006,09,25,15,43,21.30
2006,09,25,15,44,21.30
2006,09,25,15,45,21.30
2006,09,25,15,46,21.30
2006,09,25,15,47,21.40
2006,09,25,15,48,21.40
2006,09,25,15,49,21.40
2006,09,25,15,50,21.40
2006,09,25,15,51,21.40
2006,09,25,15,52,21.40
2006,09,25,15,53,21.40
2006,09,25,15,54,21.40
2006,09,25,15,55,21.30
2006,09,25,15,56,21.30
2006,09,25,15,57,21.30
2006,09,25,15,58,21.30
2006,09,25,15,59,21.40
2006,09,25,16,00,21.40
2006,09,25,16,01,21.40
2006,09,25,16,02,21.40
2006,09,25,16,03,21.40
2006,09,25,16,04,21.40
2006,09,25,16,05,21.40
2006,09,25,16,06,21.30
2006,09,25,16,07,21.30
2006,09,25,16,08,21.30
2006,09,25,16,09,21.30
2006,09,25,16,10,21.30
2006,09,25,16,11,21.30
2006,09,25,16,12,21.40
2006,09,25,16,13,21.40
2006,09,25,16,14,21.50
2006,09,25,16,15,21.60
2006,09,25,16,16,21.60
2006,09,25,16,17,21.60
2006,09,25,16,18,21.60
2006,09,25,16,19,21.60
2006,09,25,16,20,21.70
2006,09,25,16,21,21.70
2006,09,25,16,22,21.80
2006,09,25,16,23,21.80
2006,09,25,16,24,21.80
2006,09,25,16,25,21.80
2006,09,25,16,26,21.90
2006,09,25,16,27,22.00
2006,09,25,16,28,22.00
2006,09,25,16,29,22.10
2006,09,25,16,30,22.20
2006,09,25,16,31,22.20
2006,09,25,16,32,22.30
2006,09,25,16,33,22.30
2006,09,25,16,34,22.40
2006,09,25,16,35,22.40
2006,09,25,16,36,22.40
2006,09,25,16,37,22.40
2006,09,25,16,38,22.40
2006,09,25,16,39,22.40
2006,09,25,16,40,22.40
2006,09,25,16,41,22.40
2006,09,25,16,42,22.40
2006,09,25,16,43,22.50
2006,09,25,16,44,22.50
2006,09,25,16,45,22.50
2006,09,25,16,46,22.50
2006,09,25,16,47,22.50
2006,09,25,16,48,22.50
2006,09,25,16,49,22.50
2006,09,25,16,50,22.50
2006,09,25,16,51,22.50
2006,09,25,16,52,22.50
2006,09,25,16,53,22.50
2006,09,25,16,54,22.50
2006,09,25,16,55,22.50
2006,09,25,16,56,22.60
2006,09,25,16,57,22.60
2006,09,25,16,58,22.60
2006,09,25,16,59,22.70
2006,09,25,17,00,22.70
2006,09,25,17,01,22.80
2006,09,25,17,02,22.90
2006,09,25,17,03,22.90
2006,09,25,17,04,22.90
2006,09,25,17,05,23.20
2006,09,25,17,06,23.30
2006,09,25,17,07,23.30
2006,09,25,17,08,23.40
2006,09,25,17,09,23.40
2006,09,25,17,10,23.40
2006,09,25,17,11,23.40
2006,09,25,17,12,23.50
2006,09,25,17,13,23.60
2006,09,25,17,14,23.70
2006,09,25,17,15,23.70
2006,09,25,17,16,23.70
2006,09,25,17,17,23.80
2006,09,25,17,18,23.90
2006,09,25,17,19,23.90
2006,09,25,17,20,23.90
2006,09,25,17,21,23.90
2006,09,25,17,22,23.90
2006,09,25,17,23,23.80